Weather in Khama

Syria     35°07′57″N   36°45′34″E
temp.,
°C
wind,
m/s
gust,
m/s
humid.,
%
clouds,
%
prec.,
mm/h
press.,
hPa
HPBL,
m
18 may, wed
wed1800:00+17sw22610 0.0 101450
03:00+16ssw22610 0.0 101334
06:00+16sw11640 0.0 101316
09:00+23wsw34410 0.0 1013592
12:00+28wnw46250 0.0 10132291
15:00+29w88180 0.0 10112437
18:00+26wnw67230 0.0 10111267
21:00+20w23450 0.0 101337
19 may, thu
thu1900:00+18sw12560 0.0 101314
03:00+17ssw11580 0.0 101311
06:00+17ssw22570 0.0 101414
09:00+23sw23370 0.0 1014484
12:00+29w46200 0.0 10132372
15:00+29w99210 0.0 10122072
18:00+26w79220 0.0 10121092
21:00+19w22410 0.0 101426
20 may, fri
fri2000:00+18ssw11470 0.0 101511
03:00+16ssw22510 0.0 101413
06:00+16s11600 0.0 101411
09:00+22nnw12440 0.0 1015523
12:00+27nw24290 0.0 10141974
15:00+30wnw76191 0.0 10122848
18:00+27wnw76240 0.0 10131115
21:00+20wnw23360 0.0 101541
21 may, sat
sat2100:00+18nnw11370 0.0 101511
03:00+17ne01350 0.0 101411
06:00+17ese12335 0.0 101512
09:00+23ese332162 0.0 1015743
12:00+28ene2215100 0.0 10131526
15:00+30n131265 0.0 10112118
18:00+31nne321295 0.0 10101209
21:00+25e34160 0.0 101139
22 may, sun
sun2200:00+22ese11200 0.0 101111
03:00+21ene11210 0.0 100912
06:00+19wsw11270 0.0 100911
09:00+26s13150 0.0 1008655
12:00+32wsw67140 0.0 10052272
15:00+29wsw98240 0.0 10051457
18:00+23wsw10134232 0.0 10061061
21:00+19wsw814569 0.0 10071017